KD8DNS Weather Reports


Display with metric or nautical units.
time (UTC)temp
F
wind
direction
speed
MPH
gust
MPH
rain 1hr
in
rain 24hr
in
rain mn
in
humidity
%
barometer
mb
20260504202239 0 334 3.0 10.0 0.00 0.00 0.00 1010.9
20260504201736 0 298 6.0 9.0 0.00 0.00 0.00 1010.9
20260504201233 0 318 4.0 9.0 0.00 0.00 0.00 1011.5
20260504200731 0 302 5.0 7.0 0.00 0.00 0.00 1011.3
20260504200226 0 319 5.0 8.0 0.00 0.00 0.00 1011.4
20260504195723 0 286 3.0 8.0 0.00 0.00 0.00 1011.6
20260504195219 0 341 5.0 7.0 0.00 0.00 0.00 1011.7
20260504194716 0 359 2.0 6.0 0.00 0.00 0.00 1011.8
20260504194212 0 336 4.0 6.0 0.00 0.00 0.00 1012.0
20260504193709 0 326 3.0 9.0 0.00 0.00 0.00 1011.9
20260504193206 0 317 3.0 9.0 0.00 0.00 0.00 1012.0
20260504192705 0 334 6.0 9.0 0.00 0.00 0.00 1012.0
20260504192202 0 289 4.0 10.0 0.00 0.00 0.00 1011.9
20260504191701 0 349 6.0 11.0 0.00 0.00 0.00 1011.7
20260504191156 0 352 5.0 8.0 0.00 0.00 0.00 1011.5
20260504190652 0 294 5.0 9.0 0.00 0.00 0.00 1011.5
20260504190149 0 343 1.0 11.0 0.00 0.00 0.00 1011.4
20260504185645 0 298 4.0 8.0 0.00 0.00 0.00 1010.9
20260504185142 0 319 0.0 6.0 0.00 0.00 0.00 1011.0
20260504184639 0 313 5.0 8.0 0.00 0.00 0.00 1011.0
20260504184133 0 306 3.0 7.0 0.00 0.00 0.00 1011.1
20260504183631 0 353 6.0 11.0 0.00 0.00 0.00 1011.3
20260504183128 0 322 1.0 5.0 0.00 0.00 0.00 1011.3
20260504182626 0 315 2.0 9.0 0.00 0.00 0.00 1011.2
20260504182123 0 334 2.0 7.0 0.00 0.00 0.00 1011.3
20260504181620 0 290 5.0 7.0 0.00 0.00 0.00 1011.1
20260504181118 0 303 3.0 6.0 0.00 0.00 0.00 1011.0
20260504180617 0 291 2.0 7.0 0.00 0.00 0.00 1010.9
20260504180115 0 329 4.0 9.0 0.00 0.00 0.00 1011.2
20260504175612 0 298 3.0 10.0 0.00 0.00 0.00 1011.3
20260504175109 0 347 6.0 9.0 0.00 0.00 0.00 1011.2
20260504174607 0 311 3.0 8.0 0.00 0.00 0.00 1011.4
20260504174103 0 348 2.0 8.0 0.00 0.00 0.00 1011.3
20260504173600 0 312 3.0 5.0 0.00 0.00 0.00 1011.3
20260504173058 0 344 1.0 5.0 0.00 0.00 0.00 1011.4
20260504172554 0 310 4.0 9.0 0.00 0.00 0.00 1011.7
20260504172050 0 8 6.0 11.0 0.00 0.00 0.00 1011.6
20260504171547 0 344 0.0 5.0 0.00 0.00 0.00 1011.6
20260504171044 0 332 5.0 7.0 0.00 0.00 0.00 1011.6
20260504170540 0 329 1.0 3.0 0.00 0.00 0.00 1011.6
20260504150924 0 349 2.0 8.0 0.00 0.00 0.00 1012.4
20260504150421 0 272 6.0 9.0 0.00 0.00 0.00 1012.3
20260504140847 0 336 1.0 7.0 0.00 0.00 0.00 1013.3
20260504140343 0 310 2.0 8.0 0.00 0.00 0.00 1012.8
20260504130812 0 297 6.0 9.0 0.00 0.00 0.00 1013.5
20260504130308 0 327 2.0 7.0 0.00 0.00 0.00 1013.4
20260504120232 0 282 4.0 5.0 0.00 0.00 0.00 1013.1
20260504110659 0 295 1.0 3.0 0.00 0.00 0.00 1013.2
20260504110155 0 307 3.0 6.0 0.00 0.00 0.00 1013.1
20260504100615 0 335 1.0 2.0 0.00 0.00 0.00 1013.1
20260504100114 0 294 2.0 3.0 0.00 0.00 0.00 1013.1
20260504081507 0 304 3.0 3.0 0.00 0.00 0.00 1014.0
20260504081002 0 347 2.0 5.0 0.00 0.00 0.00 1013.9
20260504080459 0 348 1.0 2.0 0.00 0.00 0.00 1014.1
20260504050305 0 311 1.0 5.0 0.00 0.00 0.00 1015.4
20260504045802 0 330 5.0 7.0 0.00 0.00 0.00 1015.5
20260504045257 0 269 2.0 5.0 0.00 0.00 0.00 1015.7
20260504044754 0 347 2.0 3.0 0.00 0.00 0.00 1015.5
20260504044252 0 350 0.0 2.0 0.00 0.00 0.00 1015.5
20260504043749 0 355 3.0 3.0 0.00 0.00 0.00 1015.5
20260504043246 0 336 1.0 3.0 0.00 0.00 0.00 1015.7
20260504042744 0 318 2.0 5.0 0.00 0.00 0.00 1015.6
20260504042240 0 349 1.0 1.0 0.00 0.00 0.00 1015.8
20260504041736 0 338 1.0 3.0 0.00 0.00 0.00 1015.9
20260504041232 0 356 0.0 1.0 0.00 0.00 0.00 1015.9
20260504040728 0 338 1.0 2.0 0.00 0.00 0.00 1016.0
20260504040226 0 346 1.0 1.0 0.00 0.00 0.00 1016.1
20260504035722 0 347 0.0 1.0 0.00 0.00 0.00 1015.9
20260504035220 0 353 0.0 1.0 0.00 0.00 0.00 1016.0
20260504034717 0 349 0.0 1.0 0.00 0.00 0.00 1016.3
20260504034214 0 1 0.0 0.0 0.00 0.00 0.00 1015.9
20260504033712 0 6 0.0 1.0 0.00 0.00 0.00 1016.2
20260504033209 0 350 1.0 3.0 0.00 0.00 0.00 1016.1
20260504032706 0 348 0.0 3.0 0.00 0.00 0.00 1016.2
20260504032203 0 322 1.0 5.0 0.00 0.00 0.00 1016.2
20260504031659 0 349 1.0 3.0 0.00 0.00 0.00 1016.4
20260504031156 0 12 0.0 2.0 0.00 0.00 0.00 1016.3
20260504030652 0 346 2.0 5.0 0.00 0.00 0.00 1016.2
20260504030150 0 325 0.0 2.0 0.00 0.00 0.00 1016.3
20260504025646 0 348 1.0 1.0 0.00 0.00 0.00 1016.5
20260504025143 0 349 0.0 1.0 0.00 0.00 0.00 1016.3
20260504024640 0 348 1.0 2.0 0.00 0.00 0.00 1016.5
20260504024136 0 342 0.0 1.0 0.00 0.00 0.00 1016.3
20260504023634 0 340 1.0 3.0 0.00 0.00 0.00 1016.3
20260504023130 0 1 0.0 0.0 0.00 0.00 0.00 1016.4
20260504022626 0 1 0.0 0.0 0.00 0.00 0.00 1016.4
20260504022122 0 1 0.0 0.0 0.00 0.00 0.00 1016.4
20260504021620 0 1 0.0 0.0 0.00 0.00 0.00 1016.3
20260504021116 0 1 0.0 0.0 0.00 0.00 0.00 1016.4
20260504020613 0 350 0.0 1.0 0.00 0.00 0.00 1016.2
20260504020109 0 4 0.0 0.0 0.00 0.00 0.00 1016.6
20260504015606 0 353 0.0 1.0 0.00 0.00 0.00 1016.3
20260504015102 0 353 0.0 0.0 0.00 0.00 0.00 1016.5
20260504014558 0 353 0.0 0.0 0.00 0.00 0.00 1016.4
20260504014056 0 353 0.0 0.0 0.00 0.00 0.00 1016.4
20260504013553 0 353 0.0 0.0 0.00 0.00 0.00 1016.4
20260504013050 0 353 0.0 0.0 0.00 0.00 0.00 1016.4
20260504012547 0 353 0.0 0.0 0.00 0.00 0.00 1016.6
20260504012045 0 353 0.0 0.0 0.00 0.00 0.00 1016.4
20260504011542 0 353 0.0 0.0 0.00 0.00 0.00 1016.4
20260504011038 0 353 0.0 0.0 0.00 0.00 0.00 1016.3
20260504010533 0 353 0.0 0.0 0.00 0.00 0.00 1016.2
20260504010030 0 355 0.0 0.0 0.00 0.00 0.00 1016.1
20260504005527 0 10 0.0 0.0 0.00 0.00 0.00 1016.3
20260504005024 0 4 0.0 0.0 0.00 0.00 0.00 1016.3
20260504004522 0 3 0.0 0.0 0.00 0.00 0.00 1016.2
20260504004019 0 293 1.0 1.0 0.00 0.00 0.00 1016.2
20260504003515 0 352 0.0 0.0 0.00 0.00 0.00 1015.9
20260504003012 0 10 0.0 1.0 0.00 0.00 0.00 1015.8
20260504002509 0 354 0.0 0.0 0.00 0.00 0.00 1015.7
20260504002006 0 23 1.0 1.0 0.00 0.00 0.00 1015.8
20260504001504 0 20 0.0 1.0 0.00 0.00 0.00 1016.0
20260504001000 0 10 0.0 1.0 0.00 0.00 0.00 1016.0
20260504000457 0 91 1.0 3.0 0.00 0.00 0.00 1016.2
20260503235954 0 349 0.0 1.0 0.00 0.00 0.00 1016.1
20260503235452 0 327 0.0 1.0 0.00 0.00 0.00 1016.2
20260503234949 0 5 0.0 1.0 0.00 0.00 0.00 1016.3
20260503234446 0 357 0.0 1.0 0.00 0.00 0.00 1016.4
20260503233944 0 347 0.0 1.0 0.00 0.00 0.00 1016.6
20260503233440 0 358 1.0 1.0 0.00 0.00 0.00 1016.6
20260503232937 0 10 0.0 1.0 0.00 0.00 0.00 1016.7
20260503232434 0 24 1.0 2.0 0.00 0.00 0.00 1016.6
20260503231932 0 353 0.0 0.0 0.00 0.00 0.00 1016.6
20260503231429 0 359 0.0 0.0 0.00 0.00 0.00 1016.9
20260503230926 0 314 1.0 1.0 0.00 0.00 0.00 1017.0
20260503230422 0 34 0.0 1.0 0.00 0.00 0.00 1016.9
20260503225920 0 347 0.0 1.0 0.00 0.00 0.00 1017.0
20260503225416 0 357 1.0 2.0 0.00 0.00 0.00 1016.9
20260503224912 0 14 0.0 1.0 0.00 0.00 0.00 1017.0
20260503224409 0 27 1.0 1.0 0.00 0.00 0.00 1017.0
20260503223907 0 6 0.0 0.0 0.00 0.00 0.00 1017.0
20260503223405 0 356 1.0 1.0 0.00 0.00 0.00 1017.3
20260503222859 0 46 3.0 3.0 0.00 0.00 0.00 1017.1
20260503222359 0 359 0.0 1.0 0.00 0.00 0.00 1017.5
20260503221856 0 12 0.0 1.0 0.00 0.00 0.00 1017.4
20260503221355 0 23 0.0 1.0 0.00 0.00 0.00 1017.5
20260503220850 0 357 0.0 1.0 0.00 0.00 0.00 1017.5
20260503220347 0 30 1.0 2.0 0.00 0.00 0.00 1017.6
20260503215844 0 45 0.0 2.0 0.00 0.00 0.00 1017.7
20260503215342 0 292 4.0 7.0 0.00 0.00 0.00 1017.8
20260503214839 0 355 2.0 5.0 0.00 0.00 0.00 1017.9
20260503214336 0 100 5.0 9.0 0.00 0.00 0.00 1017.7
20260503213834 0 8 10.0 16.0 0.00 0.00 0.00 1017.8
20260503213331 0 304 3.0 9.0 0.00 0.00 0.00 1018.0
20260503212828 0 354 3.0 6.0 0.00 0.00 0.00 1017.9
20260503212326 0 336 6.0 10.0 0.00 0.00 0.00 1017.8
20260503211823 0 345 7.0 13.0 0.00 0.00 0.00 1018.0
20260503211319 0 331 1.0 7.0 0.00 0.00 0.00 1017.6
20260503210820 0 340 6.0 7.0 0.00 0.00 0.00 1017.7
20260503210317 0 326 5.0 8.0 0.00 0.00 0.00 1017.7
20260503205812 0 302 3.0 7.0 0.00 0.00 0.00 1017.7
20260503205309 0 348 4.0 10.0 0.00 0.00 0.00 1017.7
20260503204805 0 316 4.0 8.0 0.00 0.00 0.00 1017.5
20260503204303 0 260 7.0 9.0 0.00 0.00 0.00 1017.5
20260503203800 0 355 3.0 7.0 0.00 0.00 0.00 1017.3
20260503203257 0 319 5.0 8.0 0.00 0.00 0.00 1017.5
20260503202754 0 269 3.0 7.0 0.00 0.00 0.00 1017.6